�������l�o���
Date,Time,MP-1(��Sv/h),MP-2(��Sv/h),MP-3(��Sv/h),MP-4(��Sv/h),MP-5(��Sv/h),MP-6(��Sv/h),MP-7(��Sv/h),MP-8(��Sv/h),����,����(m/s),���J
2023/04/30,00:00,0.565,0.827,0.500,1.026,0.728,0.326,0.577,0.545,��,8.4,�L
2023/04/30,00:10,0.565,0.825,0.500,1.024,0.729,0.325,0.576,0.547,��,7.8,�L
2023/04/30,00:20,0.564,0.827,0.501,1.026,0.729,0.326,0.577,0.547,��,7.4,�L
2023/04/30,00:30,0.564,0.828,0.500,1.025,0.728,0.327,0.577,0.547,��,8.0,�L
2023/04/30,00:40,0.566,0.826,0.500,1.024,0.730,0.325,0.579,0.547,��,9.8,�L
2023/04/30,00:50,0.565,0.826,0.501,1.026,0.728,0.326,0.577,0.546,��쓌,8.8,�L
2023/04/30,01:00,0.563,0.824,0.500,1.028,0.727,0.326,0.577,0.547,��,6.9,�L
2023/04/30,01:10,0.565,0.824,0.500,1.027,0.729,0.325,0.577,0.546,��,8.4,�L
2023/04/30,01:20,0.566,0.825,0.501,1.027,0.728,0.328,0.577,0.546,��쐼,8.7,�L
2023/04/30,01:30,0.565,0.825,0.502,1.027,0.728,0.326,0.577,0.544,��,8.1,�L
2023/04/30,01:40,0.566,0.823,0.501,1.025,0.728,0.327,0.576,0.544,��,8.8,�L
2023/04/30,01:50,0.566,0.823,0.500,1.026,0.729,0.327,0.576,0.543,��,9.4,�L
2023/04/30,02:00,0.566,0.823,0.501,1.025,0.729,0.327,0.577,0.543,��,9.2,�L
2023/04/30,02:10,0.566,0.822,0.501,1.026,0.728,0.327,0.575,0.543,��,8.9,�L
2023/04/30,02:20,0.566,0.822,0.499,1.026,0.728,0.326,0.577,0.545,��,10.6,�L
2023/04/30,02:30,0.565,0.824,0.499,1.026,0.728,0.327,0.576,0.544,��,9.8,�L
2023/04/30,02:40,0.565,0.825,0.501,1.023,0.727,0.327,0.575,0.544,��,7.0,�L
2023/04/30,02:50,0.565,0.822,0.499,1.026,0.726,0.328,0.576,0.544,��,7.3,�L
2023/04/30,03:00,0.564,0.824,0.498,1.022,0.726,0.327,0.575,0.545,��,7.8,�L
2023/04/30,03:10,0.563,0.821,0.498,1.026,0.724,0.326,0.575,0.544,��,7.9,�L
2023/04/30,03:20,0.564,0.818,0.499,1.021,0.723,0.326,0.575,0.543,��,8.6,�L
2023/04/30,03:30,0.562,0.819,0.497,1.023,0.724,0.326,0.574,0.545,��,7.5,�L
2023/04/30,03:40,0.562,0.818,0.496,1.022,0.722,0.326,0.576,0.542,��,7.7,�L
2023/04/30,03:50,0.563,0.816,0.495,1.021,0.723,0.326,0.573,0.542,��쓌,8.0,�L
2023/04/30,04:00,0.562,0.818,0.497,1.023,0.722,0.326,0.574,0.544,��쓌,7.5,�L
2023/04/30,04:10,0.563,0.818,0.497,1.019,0.724,0.326,0.573,0.545,��쓌,7.5,�L
2023/04/30,04:20,0.562,0.815,0.497,1.022,0.721,0.326,0.575,0.544,��쓌,7.9,�L
2023/04/30,04:30,0.561,0.816,0.496,1.022,0.721,0.325,0.575,0.543,��쓌,7.0,�L
2023/04/30,04:40,0.560,0.815,0.496,1.021,0.720,0.325,0.575,0.543,��,6.4,�L
2023/04/30,04:50,0.561,0.815,0.498,1.021,0.720,0.327,0.575,0.545,��,7.1,�L
2023/04/30,05:00,0.559,0.813,0.497,1.022,0.722,0.327,0.576,0.545,��,7.4,�L
2023/04/30,05:10,0.561,0.813,0.497,1.020,0.718,0.327,0.574,0.544,��,7.6,�L
2023/04/30,05:20,0.561,0.814,0.497,1.023,0.721,0.327,0.574,0.544,��,8.9,�L
2023/04/30,05:30,0.560,0.813,0.496,1.022,0.719,0.328,0.576,0.544,��,8.4,�L
2023/04/30,05:40,0.560,0.812,0.496,1.020,0.719,0.326,0.574,0.543,��,9.6,�L
2023/04/30,05:50,0.560,0.810,0.496,1.021,0.715,0.327,0.575,0.543,��,9.6,�L
2023/04/30,06:00,0.559,0.807,0.494,1.019,0.716,0.326,0.573,0.542,��,9.8,�L
2023/04/30,06:10,0.557,0.806,0.493,1.018,0.715,0.327,0.573,0.541,��,9.2,�L
2023/04/30,06:20,0.557,0.805,0.492,1.016,0.711,0.326,0.572,0.540,��,10.3,�L
2023/04/30,06:30,0.557,0.802,0.491,1.017,0.711,0.325,0.572,0.541,��,9.2,�L
2023/04/30,06:40,0.558,0.803,0.492,1.014,0.712,0.324,0.572,0.541,��,10.5,�L
2023/04/30,06:50,0.556,0.804,0.491,1.014,0.712,0.326,0.572,0.540,��쓌,11.4,�L
2023/04/30,07:00,0.555,0.801,0.491,1.016,0.711,0.326,0.573,0.541,��쓌,10.3,�L
2023/04/30,07:10,0.554,0.800,0.489,1.012,0.711,0.325,0.572,0.540,��,8.8,�L
2023/04/30,07:20,0.556,0.800,0.488,1.014,0.708,0.324,0.573,0.540,��,10.8,�L
2023/04/30,07:30,0.554,0.800,0.489,1.011,0.708,0.324,0.572,0.538,��,11.6,�L
2023/04/30,07:40,0.553,0.803,0.491,1.013,0.710,0.323,0.571,0.539,��,10.6,�L
2023/04/30,07:50,0.552,0.801,0.489,1.013,0.709,0.322,0.572,0.539,��,9.7,�L
2023/04/30,08:00,0.553,0.800,0.490,1.010,0.707,0.322,0.571,0.538,��,8.7,�L
2023/04/30,08:10,0.552,0.800,0.489,1.011,0.706,0.323,0.571,0.538,��,7.8,�L
2023/04/30,08:20,0.552,0.800,0.490,1.012,0.706,0.323,0.572,0.539,�쐼,4.9,�L
2023/04/30,08:30,0.552,0.798,0.488,1.009,0.706,0.324,0.570,0.538,���k��,4.7,�L
2023/04/30,08:40,0.550,0.795,0.487,1.007,0.703,0.324,0.570,0.538,���k��,5.2,�L
2023/04/30,08:50,0.549,0.791,0.484,1.005,0.702,0.323,0.570,0.537,��,4.5,�L
2023/04/30,09:00,0.546,0.790,0.485,1.000,0.698,0.323,0.568,0.538,�쐼,5.2,�L
2023/04/30,09:10,0.549,0.790,0.486,0.999,0.699,0.324,0.569,0.537,�쐼,6.4,��
2023/04/30,09:20,0.546,0.789,0.484,0.997,0.699,0.323,0.567,0.536,��쐼,6.7,�L
2023/04/30,09:30,0.549,0.788,0.486,0.999,0.700,0.323,0.569,0.537,��쐼,6.7,�L
2023/04/30,09:40,0.548,0.791,0.486,1.000,0.699,0.322,0.569,0.539,�쐼,7.7,�L
2023/04/30,09:50,0.550,0.792,0.489,0.999,0.700,0.321,0.569,0.538,�쐼,6.5,�L
2023/04/30,10:00,0.550,0.790,0.487,0.998,0.698,0.322,0.569,0.538,�쐼,5.0,�L
2023/04/30,10:10,0.549,0.791,0.487,1.000,0.700,0.321,0.568,0.538,���쐼,5.2,�L
2023/04/30,10:20,0.549,0.792,0.487,0.999,0.699,0.321,0.570,0.539,���쐼,5.9,�L
2023/04/30,10:30,0.548,0.790,0.487,1.000,0.701,0.321,0.568,0.539,���쐼,6.4,�L
2023/04/30,10:40,0.548,0.790,0.489,0.998,0.701,0.322,0.569,0.537,���쐼,5.7,�L
2023/04/30,10:50,0.548,0.791,0.486,1.000,0.702,0.322,0.569,0.539,��,3.2,��
2023/04/30,11:00,0.550,0.791,0.489,1.000,0.700,0.321,0.569,0.539,���k��,0.9,�L
2023/04/30,11:10,0.550,0.791,0.487,0.999,0.702,0.322,0.570,0.538,�k��,2.9,��
2023/04/30,11:20,0.550,0.794,0.486,1.002,0.703,0.321,0.571,0.538,��,1.5,�L
2023/04/30,11:30,0.549,0.792,0.484,1.000,0.702,0.321,0.569,0.539,�k��,1.1,��
2023/04/30,11:40,0.548,0.791,0.485,0.998,0.702,0.320,0.570,0.538,��쓌,1.9,�L
2023/04/30,11:50,0.548,0.793,0.484,0.999,0.703,0.321,0.568,0.539,�k�k��,1.5,��
2023/04/30,12:00,0.549,0.792,0.484,1.000,0.702,0.320,0.568,0.539,��,4.2,��
2023/04/30,12:10,0.548,0.794,0.486,1.000,0.702,0.320,0.568,0.540,��,8.7,�L
2023/04/30,12:20,0.549,0.792,0.487,0.999,0.701,0.320,0.570,0.537,���k��,8.4,�L
2023/04/30,12:30,0.549,0.793,0.484,1.000,0.701,0.320,0.570,0.540,���k��,8.0,��
2023/04/30,12:40,0.549,0.792,0.486,0.999,0.701,0.321,0.571,0.538,���k��,7.8,��
2023/04/30,12:50,0.549,0.793,0.484,0.999,0.699,0.321,0.570,0.538,���k��,6.6,�L
2023/04/30,13:00,0.548,0.794,0.486,1.000,0.703,0.321,0.571,0.538,���k��,5.5,�L
2023/04/30,13:10,0.549,0.794,0.488,1.003,0.704,0.322,0.571,0.538,���k��,4.9,��
2023/04/30,13:20,0.550,0.794,0.486,1.002,0.703,0.322,0.571,0.540,���k��,3.9,�L
2023/04/30,13:30,0.550,0.795,0.486,1.001,0.703,0.321,0.570,0.539,���k��,3.5,��
2023/04/30,13:40,0.551,0.794,0.485,1.004,0.703,0.323,0.570,0.538,��,3.5,��
2023/04/30,13:50,0.550,0.794,0.485,1.004,0.702,0.321,0.571,0.539,���k��,4.0,��
2023/04/30,14:00,0.549,0.794,0.486,1.004,0.704,0.321,0.571,0.539,���k��,5.2,��
2023/04/30,14:10,0.548,0.793,0.486,1.003,0.702,0.320,0.572,0.540,�k��,8.1,��
2023/04/30,14:20,0.551,0.795,0.487,1.003,0.704,0.320,0.571,0.539,�k��,7.6,��
2023/04/30,14:30,0.549,0.795,0.487,1.005,0.706,0.320,0.573,0.540,�k��,3.0,��
2023/04/30,14:40,0.551,0.794,0.487,1.004,0.704,0.321,0.571,0.539,���k��,2.0,��
2023/04/30,14:50,0.550,0.797,0.489,1.004,0.703,0.320,0.570,0.540,���k��,4.2,��
2023/04/30,15:00,0.550,0.796,0.488,1.005,0.706,0.321,0.571,0.539,���k��,5.4,�L
2023/04/30,15:10,0.553,0.796,0.488,1.003,0.704,0.321,0.573,0.542,���k��,7.2,�L
2023/04/30,15:20,0.549,0.796,0.489,1.004,0.706,0.320,0.571,0.540,���k��,6.1,�L
2023/04/30,15:30,0.550,0.797,0.489,1.006,0.705,0.322,0.571,0.539,���k��,6.2,�L
2023/04/30,15:40,0.552,0.799,0.489,1.004,0.706,0.323,0.571,0.540,���k��,6.1,�L
2023/04/30,15:50,0.550,0.796,0.490,1.005,0.705,0.321,0.572,0.541,���k��,6.0,�L
2023/04/30,16:00,0.552,0.798,0.489,1.008,0.705,0.323,0.571,0.544,���k��,9.9,�L
2023/04/30,16:10,0.553,0.796,0.488,1.007,0.708,0.322,0.571,0.541,��,9.5,��
2023/04/30,16:20,0.552,0.796,0.489,1.007,0.705,0.321,0.572,0.542,��,8.5,��
2023/04/30,16:30,0.551,0.797,0.488,1.008,0.706,0.323,0.573,0.540,��,7.9,��
2023/04/30,16:40,0.551,0.798,0.488,1.006,0.707,0.321,0.572,0.540,��,7.2,�L
2023/04/30,16:50,0.551,0.799,0.490,1.005,0.707,0.322,0.572,0.543,���k��,4.8,�L
2023/04/30,17:00,0.550,0.799,0.489,1.006,0.706,0.321,0.572,0.543,��,2.6,��
2023/04/30,17:10,0.552,0.798,0.489,1.005,0.705,0.321,0.574,0.543,���k��,3.6,��
2023/04/30,17:20,0.552,0.799,0.489,1.004,0.705,0.321,0.575,0.542,���k��,7.2,�L
2023/04/30,17:30,0.554,0.800,0.489,1.007,0.703,0.322,0.574,0.541,���k��,6.0,��
2023/04/30,17:40,0.552,0.799,0.489,1.007,0.707,0.322,0.571,0.542,���k��,5.6,��
2023/04/30,17:50,0.554,0.801,0.490,1.005,0.704,0.320,0.573,0.542,���k��,7.0,��
2023/04/30,18:00,0.550,0.800,0.489,1.008,0.702,0.322,0.573,0.542,���k��,4.8,��
2023/04/30,18:10,0.551,0.800,0.490,1.009,0.705,0.321,0.570,0.542,�k��,6.0,��
2023/04/30,18:20,0.552,0.800,0.489,1.008,0.706,0.322,0.571,0.543,�k��,6.1,��
2023/04/30,18:30,0.552,0.801,0.489,1.007,0.706,0.321,0.572,0.541,�k��,4.7,��
2023/04/30,18:40,0.552,0.798,0.489,1.006,0.707,0.320,0.573,0.542,�k��,4.2,��
2023/04/30,18:50,0.552,0.802,0.489,1.007,0.707,0.321,0.571,0.543,�k��,5.8,��
2023/04/30,19:00,0.553,0.801,0.490,1.007,0.707,0.322,0.573,0.543,���k��,5.2,��
2023/04/30,19:10,0.554,0.802,0.489,1.008,0.708,0.322,0.573,0.541,�k��,4.7,��
2023/04/30,19:20,0.553,0.801,0.489,1.007,0.708,0.323,0.573,0.542,�k��,5.2,��
2023/04/30,19:30,0.553,0.800,0.490,1.008,0.708,0.323,0.573,0.543,���k��,5.5,��
2023/04/30,19:40,0.553,0.801,0.490,1.008,0.708,0.323,0.573,0.543,���k��,5.0,��
2023/04/30,19:50,0.554,0.800,0.489,1.008,0.708,0.322,0.573,0.542,�k��,5.9,��
2023/04/30,20:00,0.551,0.801,0.490,1.008,0.707,0.322,0.573,0.541,�k��,5.8,��
2023/04/30,20:10,0.553,0.802,0.489,1.007,0.709,0.322,0.573,0.541,�k��,6.9,��
2023/04/30,20:20,0.553,0.801,0.491,1.007,0.709,0.322,0.573,0.542,�k��,8.6,��
2023/04/30,20:30,0.554,0.803,0.490,1.009,0.710,0.323,0.573,0.541,�k��,8.2,��
2023/04/30,20:40,0.553,0.800,0.491,1.008,0.708,0.321,0.573,0.541,�k��,9.0,��
2023/04/30,20:50,0.553,0.801,0.491,1.008,0.710,0.321,0.571,0.540,�k��,8.1,��
2023/04/30,21:00,0.552,0.801,0.489,1.008,0.709,0.321,0.572,0.543,�k��,5.5,��
2023/04/30,21:10,0.551,0.800,0.490,1.007,0.707,0.321,0.572,0.543,�k�k��,4.4,��
2023/04/30,21:20,0.553,0.801,0.490,1.008,0.708,0.321,0.571,0.540,�k��,4.9,��
2023/04/30,21:30,0.552,0.800,0.492,1.008,0.708,0.323,0.573,0.543,�k,4.3,��
2023/04/30,21:40,0.551,0.802,0.488,1.009,0.707,0.321,0.573,0.541,�k,3.1,��
2023/04/30,21:50,0.552,0.802,0.490,1.008,0.706,0.320,0.572,0.542,�k�k��,2.3,��
2023/04/30,22:00,0.555,0.799,0.488,1.008,0.708,0.321,0.572,0.542,�k�k��,3.0,��
2023/04/30,22:10,0.553,0.802,0.490,1.007,0.708,0.321,0.574,0.542,�k��,2.3,��
2023/04/30,22:20,0.551,0.800,0.490,1.008,0.708,0.322,0.572,0.540,�k�k��,2.8,��
2023/04/30,22:30,0.551,0.802,0.489,1.007,0.709,0.323,0.574,0.541,�k�k��,2.2,��
2023/04/30,22:40,0.554,0.803,0.489,1.009,0.709,0.322,0.575,0.541,�k��,2.2,��
2023/04/30,22:50,0.552,0.801,0.489,1.007,0.709,0.321,0.574,0.543,���k��,3.4,��
2023/04/30,23:00,0.552,0.801,0.489,1.008,0.710,0.323,0.574,0.543,���k��,3.7,��
2023/04/30,23:10,0.550,0.802,0.489,1.011,0.711,0.323,0.573,0.542,���k��,4.7,��
2023/04/30,23:20,0.551,0.801,0.490,1.008,0.707,0.322,0.572,0.539,���k��,6.3,��
2023/04/30,23:30,0.553,0.799,0.490,1.010,0.710,0.321,0.573,0.541,���k��,5.8,��
2023/04/30,23:40,0.553,0.801,0.490,1.007,0.711,0.321,0.572,0.541,���k��,5.8,��
2023/04/30,23:50,0.552,0.802,0.489,1.008,0.708,0.322,0.571,0.540,���k��,5.7,��
